Simultaneous Nadir Overpasses (SNOs) Predictions

Prediction of SNOs between LANDSAT-8 and NOAA-19 Satellite Orbit:

Table of predicted SNOs for the next 14.0 days since TLE Epoch: 5/29/2021
Index Date (LANDSAT-8) Time (LANDSAT-8) Lat,Lon (LANDSAT-8) SZA (LANDSAT-8 ) Date (NOAA-19) Time (NOAA-19) Lat,Lon (NOAA-19) SZA (NOAA-19 ) Distance(km) Time Diff (sec)
1 05/29/2021 10:36:59 80.37, 51.63 60.16 05/29/2021 10:36:33 80.38, 51.73 60.17 2.55 26
2 05/29/2021 11:26:26 -80.36,-140.76 119.86 05/29/2021 11:27:27 -80.37,-140.81 119.83 1.24 61
3 05/31/2021 16:10:44 -80.38, 148.36 120.14 05/31/2021 16:09:38 -80.39, 148.33 120.16 1.26 66
4 05/31/2021 17:00:11 80.36, -44.26 59.81 05/31/2021 17:00:43 80.38, -44.18 59.85 2.94 32
5 06/02/2021 22:33:56 -80.37, 52.47 120.46 06/02/2021 22:33:48 -80.39, 52.41 120.46 2.32 8
6 06/05/2021 04:07:40 80.39, 149.22 59.31 06/05/2021 04:07:03 80.39, 149.30 59.30 1.61 37
7 06/05/2021 04:57:07 -80.39, -43.12 120.70 06/05/2021 04:57:57 -80.37, -43.19 120.70 2.70 50
8 06/07/2021 09:41:22 -80.50,-113.11 120.74 06/07/2021 09:40:18 -80.56,-117.52 121.10 80.98 64
9 06/07/2021 10:30:52 80.38, 53.28 59.04 06/07/2021 10:31:13 80.39, 53.29 59.06 1.27 21
10 06/09/2021 16:04:37 -80.39, 150.00 121.13 06/09/2021 16:04:18 -80.40, 149.95 121.14 1.06 19
11 06/11/2021 21:38:21 80.40,-113.35 58.72 06/11/2021 21:37:33 80.41,-113.44 58.70 1.80 48



Historial Predications of SNOs between LANDSAT-8 and NOAA-19
